Date String (YYYY-MM-DD hh:mm:ss) UTC,Instrument flags,Ambient pressure (hPa),Sample flow (lpm),Bypass flow (lpm),Sample temperature (°C),Ambient temperature (°C),ASC tube jacket temperature (°C),LED temperature (°C),Box temperature (°C),Sample RH (%),Span deviation,Mass concentration (μg/m³),Mass concentration (μg/m³),Mass concentration (μg/m³)
DateTimeUTC,F1_M11,P_M11,Q1_M11,Q2_M11,T1_M11,T2_M11,T3_M11,T4_M11,T5_M11,U1_M11,ZSPAN_M11,X0_M11,X2_M11,X1_M11
2022-07-03 17:00:00,,0825.4,4.99,0.00,29.2,27.8,00.0,38.0,31.2,27.2,0000.0,0011.78,0005.09,0004.39
2022-07-03 17:01:00,,0825.4,5.00,0.00,29.3,27.9,00.0,38.0,31.2,27.1,0000.0,0013.38,0005.10,0004.39
2022-07-03 17:02:00,,0825.4,4.99,0.00,29.3,28.1,00.0,38.0,31.3,27.0,0000.0,0013.79,0005.14,0004.41
2022-07-03 17:03:00,,0825.4,5.00,0.00,29.3,28.2,00.0,38.0,31.3,27.0,0000.0,0014.48,0005.14,0004.41
2022-07-03 17:04:00,,0825.3,5.01,0.00,29.4,28.2,00.0,38.0,31.3,27.4,0000.0,0014.85,0005.17,0004.41
2022-07-03 17:05:00,,0825.4,5.00,0.00,29.3,27.6,00.0,38.0,31.2,27.2,0000.0,0014.84,0005.20,0004.42
2022-07-03 17:06:00,,0825.4,5.01,0.00,29.3,27.1,00.0,37.9,31.1,26.8,0000.0,0014.85,0005.20,0004.41
2022-07-03 17:07:00,,0825.4,4.99,0.00,29.3,27.0,00.0,37.9,31.1,27.3,0000.0,0015.08,0005.19,0004.40
2022-07-03 17:08:00,,0825.4,5.00,0.00,29.2,27.1,00.0,37.9,31.0,27.4,0000.0,0015.42,0005.17,0004.40
2022-07-03 17:09:00,,0825.4,4.98,0.00,29.2,27.3,00.0,38.0,31.0,27.2,0000.0,0015.46,0005.15,0004.41
2022-07-03 17:10:00,,0825.4,5.00,0.00,29.2,27.4,00.0,38.0,31.1,27.3,0000.0,0014.96,0005.17,0004.42
2022-07-03 17:11:00,,0825.4,5.00,0.00,29.2,27.6,00.0,38.0,31.1,27.2,0000.0,0013.74,0005.19,0004.43
2022-07-03 17:12:00,,0825.3,5.01,0.00,29.2,27.8,00.0,38.0,31.2,27.2,0000.0,0012.17,0005.19,0004.44
2022-07-03 17:13:00,,0825.3,4.99,0.00,29.3,28.0,00.0,38.0,31.3,27.4,0000.0,0011.41,0005.17,0004.44
2022-07-03 17:14:00,,0825.3,5.01,0.00,29.3,28.1,00.0,38.0,31.3,27.1,0000.0,0012.71,0005.19,0004.44
2022-07-03 17:15:00,,0825.3,5.00,0.00,29.3,28.2,00.0,38.0,31.3,26.9,0000.0,0012.68,0005.18,0004.44
2022-07-03 17:16:00,,0825.3,5.00,0.00,29.3,27.7,00.0,38.0,31.3,26.9,0000.0,0012.51,0005.15,0004.44
2022-07-03 17:17:00,,0825.4,5.00,0.00,29.3,27.1,00.0,37.9,31.1,27.2,0000.0,0012.79,0005.15,0004.45
2022-07-03 17:18:00,,0825.4,4.99,0.00,29.2,27.0,00.0,37.9,31.1,27.9,0000.0,0013.10,0005.19,0004.46
2022-07-03 17:19:00,,0825.4,5.00,0.00,29.2,27.0,00.0,37.9,31.0,28.3,0000.0,0012.78,0005.20,0004.46
2022-07-03 17:20:00,,0825.4,4.99,0.00,29.2,27.2,00.0,37.9,31.0,28.0,0000.0,0012.33,0005.23,0004.46
2022-07-03 17:21:00,,0825.4,5.00,0.00,29.2,27.4,00.0,37.9,31.0,28.1,0000.0,0012.61,0005.23,0004.47
2022-07-03 17:22:00,,0825.3,5.00,0.00,29.2,27.6,00.0,37.9,31.1,28.2,0000.0,0012.90,0005.18,0004.48
2022-07-03 17:23:00,,0825.4,4.99,0.00,29.2,27.8,00.0,37.9,31.1,27.9,0000.0,0013.60,0005.18,0004.48
2022-07-03 17:24:00,,0825.4,5.00,0.00,29.2,27.9,00.0,37.9,31.2,27.8,0000.0,0014.01,0005.17,0004.49
2022-07-03 17:25:00,,0825.3,5.00,0.00,29.3,28.1,00.0,38.0,31.2,27.9,0000.0,0012.52,0005.18,0004.51
2022-07-03 17:26:00,,0825.3,4.99,0.00,29.3,28.2,00.0,38.0,31.3,27.8,0000.0,0011.87,0005.19,0004.51
2022-07-03 17:27:00,,0825.3,5.00,0.00,29.3,28.1,00.0,38.0,31.3,27.5,0000.0,0012.41,0005.25,0004.52
2022-07-03 17:28:00,,0825.3,5.00,0.00,29.3,27.5,00.0,37.9,31.2,27.4,0000.0,0012.35,0005.27,0004.53
2022-07-03 17:29:00,,0825.3,5.01,0.00,29.3,27.0,00.0,37.9,31.1,27.5,0000.0,0011.89,0005.30,0004.55
2022-07-03 17:30:00,,0825.3,4.99,0.00,29.2,27.0,00.0,37.9,31.0,27.5,0000.0,0011.91,0005.30,0004.57
2022-07-03 17:31:00,,0825.4,5.00,0.00,29.2,27.1,00.0,37.9,31.0,27.3,0000.0,0011.87,0005.29,0004.59
2022-07-03 17:32:00,,0825.3,5.00,0.00,29.1,27.2,00.0,37.9,31.0,27.3,0000.0,0011.76,0005.30,0004.57
2022-07-03 17:33:00,,0825.4,5.01,0.00,29.1,27.4,00.0,37.9,31.0,27.6,0000.0,0011.54,0005.30,0004.56
2022-07-03 17:34:00,,0825.3,5.00,0.00,29.2,27.6,00.0,37.9,31.1,27.2,0000.0,0011.59,0005.28,0004.56
2022-07-03 17:35:00,,0825.3,5.00,0.00,29.2,27.8,00.0,37.9,31.1,27.3,0000.0,0012.02,0005.27,0004.55
2022-07-03 17:36:00,,0825.3,5.00,0.00,29.2,27.9,00.0,37.9,31.2,27.0,0000.0,0012.23,0005.25,0004.54
2022-07-03 17:37:00,,0825.3,5.01,0.00,29.3,28.1,00.0,37.9,31.2,26.8,0000.0,0012.11,0005.24,0004.52
2022-07-03 17:38:00,,0825.4,5.01,0.00,29.3,28.2,00.0,38.0,31.3,26.8,0000.0,0011.60,0005.19,0004.49
2022-07-03 17:39:00,,0825.3,5.01,0.00,29.3,28.0,00.0,37.9,31.3,26.7,0000.0,0011.47,0005.16,0004.46
2022-07-03 17:40:00,,0825.3,5.00,0.00,29.3,27.3,00.0,37.9,31.2,27.2,0000.0,0011.51,0005.09,0004.43
2022-07-03 17:41:00,,0825.3,5.00,0.00,29.2,27.0,00.0,37.9,31.1,26.9,0000.0,0011.96,0005.11,0004.40
2022-07-03 17:42:00,,0825.3,5.01,0.00,29.2,27.0,00.0,37.9,31.0,27.2,0000.0,0011.92,0005.11,0004.37
2022-07-03 17:43:00,,0825.2,4.99,0.00,29.2,27.1,00.0,37.9,31.0,27.1,0000.0,0011.87,0005.08,0004.35
2022-07-03 17:44:00,,0825.2,5.00,0.00,29.1,27.3,00.0,37.9,31.0,27.1,0000.0,0012.05,0005.02,0004.32
2022-07-03 17:45:00,,0825.2,5.00,0.00,29.1,27.5,00.0,37.9,31.1,26.6,0000.0,0011.65,0005.01,0004.29
2022-07-03 17:46:00,,0825.2,4.99,0.00,29.2,27.7,00.0,37.9,31.1,26.3,0000.0,0011.10,0005.00,0004.27
2022-07-03 17:47:00,,0825.2,5.01,0.00,29.2,27.8,00.0,37.9,31.2,26.3,0000.0,0010.58,0004.96,0004.23
2022-07-03 17:48:00,,0825.2,5.00,0.00,29.2,28.0,00.0,37.9,31.2,26.1,0000.0,0010.44,0004.90,0004.19
2022-07-03 17:49:00,,0825.2,5.00,0.00,29.3,28.2,00.0,38.0,31.3,26.0,0000.0,0010.42,0004.86,0004.15
2022-07-03 17:50:00,,0825.2,5.00,0.00,29.3,28.3,00.0,38.0,31.3,26.2,0000.0,0010.45,0004.82,0004.12
2022-07-03 17:51:00,,0825.1,5.00,0.00,29.3,27.9,00.0,37.9,31.3,25.9,0000.0,0010.38,0004.80,0004.09
2022-07-03 17:52:00,,0825.2,5.00,0.00,29.3,27.2,00.0,37.9,31.1,25.9,0000.0,0009.67,0004.72,0004.06
2022-07-03 17:53:00,,0825.1,5.00,0.00,29.3,27.1,00.0,37.9,31.1,25.9,0000.0,0009.66,0004.63,0004.02
2022-07-03 17:54:00,,0825.1,5.01,0.00,29.2,27.1,00.0,37.9,31.0,25.7,0000.0,0009.95,0004.59,0003.99
2022-07-03 17:55:00,,0825.1,5.01,0.00,29.2,27.3,00.0,37.9,31.0,25.9,0000.0,0009.85,0004.57,0003.94
2022-07-03 17:56:00,,0825.1,4.99,0.00,29.2,27.5,00.0,37.9,31.1,25.7,0000.0,0009.09,0004.56,0003.91
2022-07-03 17:57:00,,0825.1,5.00,0.00,29.2,27.7,00.0,37.9,31.1,25.4,0000.0,0009.02,0004.56,0003.88
2022-07-03 17:58:00,,0825.0,5.00,0.00,29.2,27.8,00.0,37.9,31.2,25.5,0000.0,0010.11,0004.57,0003.88
2022-07-03 17:59:00,,0825.0,5.00,0.00,29.3,28.0,00.0,38.0,31.2,25.7,0000.0,0010.21,0004.59,0003.87
